Terminal Aerodrome Forecast
Issued by NWS Raleigh/Durham, NC

Home | Current Version | Previous Version | Text Only | Print | Product List | Glossary On
Versions: 1 2 3 4 5 6 7 8 9 10 11 12 13 14 15 16 17 18 19 20 21 22 23 24 25 26 27 28 29 30 31 32 33 34 35 36 37 38 39 40 41 42 43 44 45 46 47 48 49 50
000
FTUS42 KRAH 261738
TAFFAY
TAF
KFAY 261738Z 2618/2718 22010KT P6SM SCT020 BKN050
     FM262000 20012G24KT P6SM SCT050
     FM270000 20008KT P6SM SCT050
     FM270900 20009KT 6SM BR OVC003
     FM271200 20008KT 2SM -SHRA BR OVC005
     FM271400 34015G25KT 5SM -RA BR OVC005=

USA.gov is the U.S. government's official web portal to all federal, state and local government web resources and services.